User: anonymous   Login
Location: Unspecified
(0.0000°N, 0.0000°E)
Time: 07:00:14
(UTC+00:00)
Language:

JUGNU - Orbit

View from above orbital plane
View from above orbital plane
View from above satellite
View from above satellite

Ground track
Ground track

The orbit data is extracted from the following two-line orbital elements,

1 37839U 11058B   19081.37299701 +.00000344 +00000-0 +41642-4 0  9994
2 37839 019.9602 150.3471 0019062 073.4455 005.9378 14.12645052384643
Epoch (UTC): 22 March 2019 08:57:06
Eccentricity: 0.0019062
inclination: 19.9602°
perigee height: 836 km
apogee height: 864 km
right ascension of ascending node: 150.3471°
argument of perigee: 73.4455°
revolutions per day: 14.12645052
mean anomaly at epoch: 5.9378°
orbit number at epoch: 38464

The dashed part of the orbit path shows where the satellite is in the earth's shadow,  

DLR